When you browse on this site, cookies collect data to enhance your experience and personalize the content and advertising you see.
Visit our Privacy Policy to learn more. By continuing to use the site, you agree to this use of cookies and data.
EN

Hourly Weather Rangpur

Today, 9 July, Thursday

Time Temperature Precipitation Wind Pressure Humidity
00:00 +31°C° 0 mm 2 mps 749 mmHg 79%
01:00 +31°C° 0 mm 2 mps 748 mmHg 81%
02:00 +30°C° 0 mm 2 mps 748 mmHg 82%
03:00 +30°C° 0 mm 2 mps 747 mmHg 83%
04:00 +30°C° 0.3 mm 2 mps 747 mmHg 85%
05:00 +30°C° 0.3 mm 3 mps 747 mmHg 86%
06:00 +30°C° 0.3 mm 3 mps 747 mmHg 87%
07:00 +30°C° 0.5 mm 3 mps 747 mmHg 84%
08:00 +31°C° 0.5 mm 3 mps 747 mmHg 81%
09:00 +33°C° 0.5 mm 4 mps 748 mmHg 77%
10:00 +34°C° 2.4 mm 4 mps 747 mmHg 75%
11:00 +34°C° 2.4 mm 4 mps 747 mmHg 73%
12:00 +35°C° 2.4 mm 5 mps 747 mmHg 70%
13:00 +35°C° 2.3 mm 5 mps 747 mmHg 71%
14:00 +35°C° 2.3 mm 5 mps 746 mmHg 72%
15:00 +34°C° 2.3 mm 5 mps 746 mmHg 72%
16:00 +34°C° 2.6 mm 5 mps 746 mmHg 75%
17:00 +33°C° 2.6 mm 4 mps 746 mmHg 78%
18:00 +32°C° 2.6 mm 4 mps 746 mmHg 81%
19:00 +32°C° 1.6 mm 4 mps 746 mmHg 83%
20:00 +31°C° 1.6 mm 3 mps 746 mmHg 84%
21:00 +30°C° 1.6 mm 3 mps 747 mmHg 86%
22:00 +30°C° 1.6 mm 2 mps 746 mmHg 87%
23:00 +30°C° 1.6 mm 2 mps 746 mmHg 88%

Tomorrow, 10 July, Friday

Time Temperature Precipitation Wind Pressure Humidity
00:00 +30°C° 1.6 mm 2 mps 746 mmHg 89%
01:00 +29°C° 1.7 mm 2 mps 745 mmHg 89%
02:00 +29°C° 1.7 mm 3 mps 745 mmHg 90%
03:00 +29°C° 1.7 mm 3 mps 744 mmHg 91%
04:00 +29°C° 4.3 mm 3 mps 744 mmHg 92%
05:00 +29°C° 4.3 mm 3 mps 745 mmHg 93%
06:00 +28°C° 4.3 mm 3 mps 745 mmHg 95%
07:00 +28°C° 6.3 mm 2 mps 745 mmHg 95%
08:00 +28°C° 6.3 mm 2 mps 746 mmHg 94%
09:00 +29°C° 6.3 mm 2 mps 746 mmHg 94%
10:00 +29°C° 1.9 mm 1 mps 746 mmHg 93%
11:00 +29°C° 1.9 mm 1 mps 747 mmHg 92%
12:00 +30°C° 1.9 mm 1 mps 747 mmHg 90%
13:00 +29°C° 2 mm 1 mps 746 mmHg 90%
14:00 +29°C° 2 mm 2 mps 746 mmHg 90%
15:00 +29°C° 2 mm 2 mps 746 mmHg 90%
16:00 +29°C° 0.9 mm 2 mps 746 mmHg 90%
17:00 +29°C° 0.9 mm 3 mps 746 mmHg 90%
18:00 +29°C° 0.9 mm 3 mps 746 mmHg 90%
19:00 +29°C° 0.3 mm 3 mps 746 mmHg 91%
20:00 +29°C° 0.3 mm 4 mps 746 mmHg 92%
21:00 +28°C° 0.3 mm 4 mps 747 mmHg 93%
22:00 +28°C° 3.4 mm 4 mps 747 mmHg 94%
23:00 +28°C° 3.4 mm 4 mps 746 mmHg 95%

Day after tomorrow, 11 July, Saturday

Time Temperature Precipitation Wind Pressure Humidity
00:00 +28°C° 3.4 mm 5 mps 746 mmHg 96%
01:00 +28°C° 6.3 mm 4 mps 746 mmHg 96%
02:00 +28°C° 6.3 mm 4 mps 745 mmHg 96%
03:00 +28°C° 6.3 mm 3 mps 744 mmHg 96%
04:00 +28°C° 6.7 mm 3 mps 744 mmHg 96%
05:00 +28°C° 6.7 mm 3 mps 745 mmHg 96%
06:00 +28°C° 6.7 mm 2 mps 745 mmHg 96%
07:00 +28°C° 3.9 mm 3 mps 745 mmHg 95%
08:00 +28°C° 3.9 mm 3 mps 745 mmHg 94%
09:00 +28°C° 3.9 mm 3 mps 746 mmHg 93%
10:00 +28°C° 4.1 mm 3 mps 746 mmHg 94%
11:00 +28°C° 4.1 mm 3 mps 746 mmHg 94%
12:00 +28°C° 4.1 mm 3 mps 746 mmHg 94%
13:00 +29°C° 2.2 mm 3 mps 746 mmHg 93%
14:00 +29°C° 2.1 mm 3 mps 746 mmHg 92%
15:00 +29°C° 2.1 mm 3 mps 745 mmHg 91%
16:00 +29°C° 1.3 mm 2 mps 745 mmHg 91%
17:00 +29°C° 1.3 mm 2 mps 746 mmHg 90%
18:00 +29°C° 1.3 mm 2 mps 746 mmHg 90%
19:00 +29°C° 0.9 mm 2 mps 746 mmHg 90%
20:00 +29°C° 0.9 mm 2 mps 747 mmHg 90%
21:00 +28°C° 0.9 mm 2 mps 747 mmHg 90%
22:00 +28°C° 0.8 mm 3 mps 747 mmHg 92%
23:00 +28°C° 0.8 mm 3 mps 747 mmHg 93%

12 July, Sunday

Time Temperature Precipitation Wind Pressure Humidity
00:00 +28°C° 0.8 mm 4 mps 747 mmHg 94%
01:00 +27°C° 1.4 mm 4 mps 747 mmHg 95%
02:00 +27°C° 1.4 mm 4 mps 746 mmHg 95%
03:00 +27°C° 1.4 mm 4 mps 746 mmHg 96%
04:00 +27°C° 5.1 mm 4 mps 746 mmHg 96%
05:00 +27°C° 5.1 mm 3 mps 746 mmHg 97%
06:00 +27°C° 5.1 mm 3 mps 746 mmHg 97%
07:00 +27°C° 8 mm 3 mps 747 mmHg 97%
08:00 +27°C° 8 mm 2 mps 747 mmHg 97%
09:00 +27°C° 8 mm 2 mps 748 mmHg 97%
10:00 +27°C° 5.6 mm 2 mps 748 mmHg 97%
11:00 +28°C° 5.6 mm 2 mps 748 mmHg 97%
12:00 +28°C° 5.6 mm 2 mps 748 mmHg 97%
13:00 +28°C° 0.7 mm 2 mps 748 mmHg 95%
14:00 +28°C° 0.7 mm 2 mps 748 mmHg 94%
15:00 +28°C° 0.7 mm 2 mps 748 mmHg 93%
16:00 +28°C° 0 mm 2 mps 748 mmHg 92%
17:00 +28°C° 0 mm 2 mps 748 mmHg 92%
18:00 +28°C° 0 mm 2 mps 748 mmHg 91%
19:00 +28°C° 0.1 mm 2 mps 748 mmHg 92%
20:00 +28°C° 0.1 mm 1 mps 749 mmHg 93%
21:00 +27°C° 0.1 mm 1 mps 749 mmHg 94%
22:00 +27°C° 0.1 mm 1 mps 749 mmHg 94%
23:00 +27°C° 0.1 mm 1 mps 749 mmHg 94%

13 July, Monday

Time Temperature Precipitation Wind Pressure Humidity
00:00 +27°C° 0.1 mm 1 mps 749 mmHg 95%
01:00 +27°C° 0.6 mm 1 mps 748 mmHg 95%
02:00 +27°C° 0.6 mm 1 mps 748 mmHg 95%
03:00 +27°C° 0.6 mm 1 mps 748 mmHg 96%
04:00 +27°C° 1 mm 1 mps 748 mmHg 95%
05:00 +27°C° 1 mm 1 mps 748 mmHg 95%
06:00 +27°C° 1 mm 1 mps 748 mmHg 95%
07:00 +28°C° 1.3 mm 1 mps 749 mmHg 92%
08:00 +29°C° 1.3 mm 2 mps 749 mmHg 90%
09:00 +29°C° 1.3 mm 2 mps 749 mmHg 87%
10:00 +29°C° 1.7 mm 2 mps 749 mmHg 87%
11:00 +30°C° 1.7 mm 2 mps 749 mmHg 87%
12:00 +30°C° 1.7 mm 1 mps 750 mmHg 86%
13:00 +30°C° 0.8 mm 1 mps 749 mmHg 86%
14:00 +30°C° 0.8 mm 1 mps 749 mmHg 86%
15:00 +30°C° 0.8 mm 1 mps 748 mmHg 86%
16:00 +30°C° 0.4 mm 2 mps 748 mmHg 87%
17:00 +30°C° 0.4 mm 2 mps 748 mmHg 88%
18:00 +30°C° 0.4 mm 3 mps 748 mmHg 88%
19:00 +29°C° 1.5 mm 4 mps 749 mmHg 89%
20:00 +29°C° 1.5 mm 4 mps 749 mmHg 90%
21:00 +29°C° 1.5 mm 5 mps 750 mmHg 91%
22:00 +28°C° 1.5 mm 4 mps 750 mmHg 92%
23:00 +28°C° 1.5 mm 4 mps 750 mmHg 92%

14 July, Tuesday

Time Temperature Precipitation Wind Pressure Humidity
00:00 +27°C° 1.5 mm 4 mps 750 mmHg 93%
01:00 +27°C° 1.5 mm 3 mps 750 mmHg 94%
02:00 +27°C° 1.5 mm 3 mps 749 mmHg 95%
03:00 +27°C° 1.5 mm 3 mps 749 mmHg 96%
04:00 +27°C° 1.6 mm 3 mps 749 mmHg 95%
05:00 +27°C° 1.6 mm 3 mps 749 mmHg 95%
06:00 +27°C° 1.6 mm 3 mps 749 mmHg 95%
07:00 +28°C° 2.2 mm 3 mps 749 mmHg 94%
08:00 +28°C° 2.2 mm 2 mps 750 mmHg 94%
09:00 +28°C° 2.2 mm 2 mps 750 mmHg 93%
10:00 +28°C° 1.9 mm 2 mps 750 mmHg 92%
11:00 +29°C° 1.9 mm 2 mps 750 mmHg 90%
12:00 +29°C° 1.9 mm 2 mps 750 mmHg 89%
13:00 +30°C° 0.3 mm 2 mps 749 mmHg 85%
14:00 +31°C° 0.3 mm 3 mps 749 mmHg 81%
15:00 +33°C° 0.3 mm 3 mps 748 mmHg 77%
16:00 +33°C° 0.5 mm 4 mps 748 mmHg 77%
17:00 +33°C° 0.5 mm 4 mps 748 mmHg 78%
18:00 +33°C° 0.5 mm 4 mps 748 mmHg 79%
19:00 +32°C° 0.6 mm 5 mps 749 mmHg 82%
20:00 +30°C° 0.6 mm 5 mps 749 mmHg 84%
21:00 +29°C° 0.6 mm 5 mps 750 mmHg 87%
22:00 +29°C° 0.9 mm 5 mps 749 mmHg 88%
23:00 +29°C° 0.9 mm 5 mps 749 mmHg 90%
Show more